Stations météo

réclame
Mon MeteoGroup
Mierkenis, Suède (2121): Température de l'air & dewpoint: 13.06.2019 12:00:00 - 19.06.2019 12:00:00 (CEST)Mierkenis, Suède (2121): Vitesse du vent & gusts: 13.06.2019 12:00:00 - 19.06.2019 12:00:00 (CEST)Mierkenis, Suède (2121): Direction du vent: 13.06.2019 12:00:00 - 19.06.2019 12:00:00 (CEST)Mierkenis, Suède (2121): reduced air pressure: 13.06.2019 12:00:00 - 19.06.2019 12:00:00 (CEST)Mierkenis, Suède (2121): visibility: 13.06.2019 12:00:00 - 19.06.2019 12:00:00 (CEST)Mierkenis, Suède (2121): Quantités de précipitations: 13.06.2019 12:00:00 - 19.06.2019 12:00:00 (CEST)
Date & Time tt [°C] td [°C] ff [km/h] ff [knt] fx [km/h] fx [knt] dd ppp [hPa] vv [km] rr [mm]
19.06.2019 12:00:00 - - - - - - - - - -
19.06.2019 11:00:00 10,0 5,4 11 6 23 12 WNW 1009,3 34 0,0
19.06.2019 10:00:00 11,2 3,7 9 5 18 10 W 1008,4 50 0,0
19.06.2019 09:00:00 11,2 4,2 12 6 21 11 NNW 1007,9 46 0,0
19.06.2019 08:00:00 10,2 4,6 2 1 8 4 SSE 1008,0 45 0,0
19.06.2019 07:00:00 8,7 4,5 3 2 10 6 NNW 1008,3 50 0,0
19.06.2019 06:00:00 6,5 4,7 4 2 7 4 WNW 1008,8 50 0,0
19.06.2019 05:00:00 5,3 4,1 4 2 8 4 NNW 1009,2 47 0,0
19.06.2019 04:00:00 5,2 4,0 4 2 10 5 N 1009,3 50 0,0
19.06.2019 03:00:00 4,4 3,4 6 3 9 5 NW 1009,7 50 0,0
19.06.2019 02:00:00 3,9 3,2 5 3 11 6 NW 1009,9 44 0,0
19.06.2019 01:00:00 2,9 2,3 6 3 8 5 NW 1010,4 26 0,0
19.06.2019 00:00:00 3,8 2,6 9 5 9 5 NNW 1010,1 44 0,0
18.06.2019 23:00:00 5,8 3,8 4 2 10 6 W 1009,6 50 0,0
18.06.2019 22:00:00 8,6 3,8 6 4 13 7 WNW 1008,8 50 0,0
18.06.2019 21:00:00 10,5 4,0 9 5 25 14 NW 1008,2 50 0,0
18.06.2019 20:00:00 10,0 4,4 9 5 25 14 NW 1008,3 50 0,0
18.06.2019 19:00:00 11,9 4,1 16 9 28 15 NW 1008,0 50 0,0
18.06.2019 18:00:00 11,6 4,3 19 10 31 17 NNW 1008,0 40 0,0
18.06.2019 17:00:00 12,0 5,2 13 7 27 15 NW 1007,9 43 0,0
18.06.2019 16:00:00 11,3 4,7 13 7 26 14 NW 1008,1 45 0,0
18.06.2019 15:00:00 10,4 6,9 12 7 32 18 NW 1007,9 46 0,1
18.06.2019 14:00:00 8,0 6,3 17 9 34 18 N 1009,2 16 0,2
18.06.2019 13:00:00 11,4 5,7 14 8 32 17 NW 1007,3 33 0,0
18.06.2019 12:00:00 13,0 4,4 12 6 20 11 NW 1006,4 44 0,1
18.06.2019 11:00:00 13,9 5,0 9 5 19 10 NW 1006,1 46 0,0
18.06.2019 10:00:00 14,8 7,1 10 5 20 11 NNW 1005,9 41 0,0
18.06.2019 09:00:00 11,2 6,3 9 5 19 11 WNW 1007,3 50 0,0
18.06.2019 08:00:00 10,9 6,4 9 5 21 12 NW 1007,4 38 0,0
18.06.2019 07:00:00 11,4 6,7 9 5 17 9 NNW 1007,6 48 0,0
18.06.2019 06:00:00 7,8 6,1 10 5 19 11 WNW 1009,0 34 0,0
18.06.2019 05:00:00 6,5 5,4 8 4 21 11 WNW 1009,9 25 0,0
18.06.2019 04:00:00 6,1 5,4 10 5 18 10 W 1010,1 12 0,0
18.06.2019 03:00:00 6,4 5,2 9 5 22 12 WNW 1010,3 26 0,0
18.06.2019 02:00:00 7,2 5,5 13 7 29 15 NNW 1010,1 39 0,0
18.06.2019 01:00:00 7,4 5,9 13 7 25 13 NNW 1010,4 33 0,2
18.06.2019 00:00:00 7,2 6,0 16 8 25 14 NNW 1010,4 10 0,1
17.06.2019 23:00:00 8,0 5,8 14 8 32 17 N 1010,6 31 0,0
17.06.2019 22:00:00 9,2 5,7 21 11 32 17 NNW 1009,8 47 0,0
17.06.2019 21:00:00 9,7 6,2 11 6 23 12 NW 1009,8 43 0,0
17.06.2019 20:00:00 10,8 5,5 10 6 29 15 NNW 1009,4 44 0,0
17.06.2019 19:00:00 11,8 6,5 18 10 36 19 NW 1009,0 45 0,0
17.06.2019 18:00:00 13,4 5,3 13 7 27 15 NW 1008,7 46 0,0
17.06.2019 17:00:00 14,4 4,4 14 8 30 16 NW 1008,6 48 0,0
17.06.2019 16:00:00 15,7 6,1 13 7 31 17 NW 1008,3 35 0,0
17.06.2019 15:00:00 16,0 6,4 14 8 27 15 NW 1008,2 35 0,0
17.06.2019 14:00:00 14,6 6,2 13 7 27 15 WNW 1008,8 42 0,0
17.06.2019 13:00:00 15,4 6,1 13 7 27 15 WNW 1008,5 48 0,0
17.06.2019 12:00:00 15,2 6,0 16 9 32 18 NW 1008,5 50 0,0
17.06.2019 11:00:00 14,7 5,5 13 7 34 18 WNW 1008,6 50 0,0
17.06.2019 10:00:00 13,8 5,9 14 8 27 14 WNW 1008,4 39 0,0
17.06.2019 09:00:00 13,9 6,5 16 9 32 18 WNW 1008,6 48 0,0
17.06.2019 08:00:00 12,8 6,2 10 5 26 14 WNW 1009,0 50 0,0
17.06.2019 07:00:00 13,0 6,6 15 8 30 16 NW 1009,0 40 0,0
17.06.2019 06:00:00 12,1 6,8 13 7 22 12 NNW 1009,3 41 0,0
17.06.2019 05:00:00 10,2 6,2 9 5 19 11 NNW 1009,8 50 0,0
17.06.2019 04:00:00 8,7 6,5 8 5 18 10 WNW 1010,0 50 0,0
17.06.2019 03:00:00 6,0 5,3 3 2 12 6 NNW 1010,7 32 0,0
17.06.2019 02:00:00 6,6 5,5 6 4 15 8 NW 1010,7 48 0,0
17.06.2019 01:00:00 7,1 5,6 6 3 10 6 WNW 1010,7 44 0,0
17.06.2019 00:00:00 8,7 6,8 4 2 6 4 NNW 1010,4 50 0,0
16.06.2019 23:00:00 12,3 8,0 0 0 9 5 N 1009,6 50 0,0
16.06.2019 22:00:00 14,0 7,7 5 3 10 6 W 1009,3 50 0,0
16.06.2019 21:00:00 16,5 7,4 0 0 12 6 N 1008,7 47 0,0
16.06.2019 20:00:00 18,7 7,5 6 4 20 11 WNW 1008,4 49 0,0
16.06.2019 19:00:00 18,7 7,5 10 5 19 11 W 1008,8 47 0,0
16.06.2019 18:00:00 18,5 7,3 13 7 24 13 W 1009,0 47 0,0
16.06.2019 17:00:00 19,8 4,3 11 6 19 10 WSW 1008,9 50 0,0
16.06.2019 16:00:00 19,7 3,0 9 5 18 10 WSW 1009,1 48 0,0
16.06.2019 15:00:00 20,2 2,1 5 3 19 10 WNW 1009,3 43 0,0
16.06.2019 14:00:00 19,5 2,8 10 5 18 10 WNW 1010,1 37 0,0
16.06.2019 13:00:00 19,4 4,3 7 4 17 9 W 1010,1 46 0,0
16.06.2019 12:00:00 18,0 4,9 7 4 15 8 NNW 1010,7 30 0,0
16.06.2019 11:00:00 16,9 1,3 7 4 16 9 WNW 1011,3 41 0,0
16.06.2019 10:00:00 16,2 5,2 6 3 16 9 N 1011,8 46 0,0
16.06.2019 09:00:00 14,5 5,0 12 7 24 13 N 1012,7 48 0,0
16.06.2019 08:00:00 14,1 6,0 14 8 23 12 NNW 1013,0 44 0,0
16.06.2019 07:00:00 13,2 6,3 9 5 17 9 NW 1013,6 46 0,0
16.06.2019 06:00:00 10,6 6,5 6 3 16 8 WNW 1014,5 48 0,0
16.06.2019 05:00:00 7,6 4,9 7 4 18 10 W 1015,6 49 0,0
16.06.2019 04:00:00 7,3 4,9 9 5 17 9 WNW 1016,2 50 0,0
16.06.2019 03:00:00 7,9 4,8 12 6 17 9 W 1016,4 50 0,0
16.06.2019 02:00:00 8,8 5,2 10 5 19 10 WNW 1016,6 50 0,0
16.06.2019 01:00:00 9,0 5,9 12 6 21 11 WNW 1016,6 50 0,0
16.06.2019 00:00:00 9,0 5,9 10 5 16 9 W 1016,8 50 0,0
15.06.2019 23:00:00 11,8 6,7 13 7 23 12 NNW 1016,2 50 0,0
15.06.2019 22:00:00 13,0 6,8 16 8 29 15 NNW 1015,9 50 0,0
15.06.2019 21:00:00 14,3 6,6 16 9 27 15 NNW 1015,7 50 0,0
15.06.2019 20:00:00 16,0 6,7 14 7 26 14 NW 1015,3 48 0,0
15.06.2019 19:00:00 17,7 7,4 12 6 26 14 NW 1015,1 45 0,0
15.06.2019 18:00:00 18,6 7,7 14 8 29 16 NW 1015,0 38 0,0
15.06.2019 17:00:00 19,3 8,0 15 8 30 16 WNW 1015,0 45 0,0
15.06.2019 16:00:00 20,3 7,3 12 7 24 13 WNW 1014,9 46 0,0
15.06.2019 15:00:00 20,2 7,2 10 5 23 12 W 1014,8 46 0,0
15.06.2019 14:00:00 19,5 7,2 7 4 19 10 W 1015,2 39 0,0
15.06.2019 13:00:00 18,6 6,4 9 5 19 10 W 1015,5 39 0,0
15.06.2019 12:00:00 18,8 6,3 8 4 18 10 W 1015,5 42 0,0
15.06.2019 11:00:00 17,9 5,8 5 3 14 8 WSW 1015,7 50 0,0
15.06.2019 10:00:00 17,3 5,6 6 3 18 10 SSE 1015,8 37 0,0
15.06.2019 09:00:00 15,6 6,1 6 3 13 7 E 1016,2 38 0,0
15.06.2019 08:00:00 15,2 6,0 5 3 10 5 N 1016,2 50 0,0
15.06.2019 07:00:00 13,9 6,3 5 3 10 6 NNW 1016,2 42 0,0
15.06.2019 06:00:00 9,6 7,0 6 3 9 5 NW 1017,3 45 0,0
15.06.2019 05:00:00 6,9 5,4 4 2 11 6 NW 1018,1 50 0,0
15.06.2019 04:00:00 7,3 5,4 8 4 10 6 NNW 1017,9 50 0,0
15.06.2019 03:00:00 8,6 6,0 9 5 12 7 NNW 1017,4 46 0,0
15.06.2019 02:00:00 6,5 5,0 6 3 11 6 WNW 1018,1 46 0,0
15.06.2019 01:00:00 7,0 5,3 6 3 11 6 NW 1017,9 49 0,0
15.06.2019 00:00:00 8,6 5,7 3 2 11 6 W 1017,4 50 0,0
14.06.2019 23:00:00 12,2 6,7 8 5 18 10 WNW 1016,0 50 0,0
14.06.2019 22:00:00 14,2 7,5 8 4 13 7 NW 1015,4 50 0,0
14.06.2019 21:00:00 13,4 7,0 8 4 12 7 NNW 1015,8 50 0,0
14.06.2019 20:00:00 15,0 6,5 8 4 14 8 WNW 1015,3 50 0,0
14.06.2019 19:00:00 15,7 6,9 6 4 12 7 NNW 1015,4 44 0,0
14.06.2019 18:00:00 15,8 6,2 4 2 9 5 N 1015,8 50 0,0
14.06.2019 17:00:00 15,6 6,1 3 2 11 6 NNW 1016,2 43 0,0
14.06.2019 16:00:00 16,1 6,5 5 3 13 7 WNW 1016,4 45 0,0
14.06.2019 15:00:00 14,6 6,2 6 3 13 7 SSW 1017,4 50 0,0
14.06.2019 14:00:00 14,2 5,5 5 3 16 9 S 1017,9 48 0,0
14.06.2019 13:00:00 12,9 4,8 6 3 15 8 SE 1018,6 41 0,0
14.06.2019 12:00:00 11,5 4,2 10 5 19 10 SE 1019,6 43 0,0
14.06.2019 11:00:00 9,9 4,3 8 5 17 9 SE 1020,8 49 0,0
14.06.2019 10:00:00 9,1 4,3 12 7 18 10 SE 1021,0 48 0,0
14.06.2019 09:00:00 8,6 4,0 10 5 15 8 SE 1021,0 50 0,0
14.06.2019 08:00:00 8,3 3,7 10 5 20 11 SE 1021,4 46 0,0
14.06.2019 07:00:00 8,8 3,0 10 5 16 9 SSE 1021,2 50 0,0
14.06.2019 06:00:00 8,8 3,2 6 3 11 6 SSE 1021,0 50 0,0
14.06.2019 05:00:00 8,1 3,2 5 3 16 9 SSE 1021,5 50 0,0
14.06.2019 04:00:00 8,7 2,7 9 5 17 9 ESE 1021,5 50 0,0
14.06.2019 03:00:00 8,2 2,9 7 4 11 6 SE 1021,9 48 0,0
14.06.2019 02:00:00 6,6 2,7 5 3 9 5 S 1022,6 50 0,0
14.06.2019 01:00:00 7,9 2,6 8 4 13 7 SSE 1022,1 50 0,0
14.06.2019 00:00:00 9,0 2,3 8 5 20 11 SE 1021,7 50 0,0
13.06.2019 23:00:00 10,4 2,5 13 7 32 17 SE 1020,9 50 0,0
13.06.2019 22:00:00 11,8 2,3 15 8 34 19 SSE 1020,4 50 0,0
13.06.2019 21:00:00 12,7 2,0 23 12 39 21 SE 1019,8 50 0,0
13.06.2019 20:00:00 13,2 1,5 22 12 38 20 SE 1019,7 50 0,0
13.06.2019 19:00:00 13,8 0,1 21 11 36 19 SE 1019,5 48 0,0
13.06.2019 18:00:00 13,5 0,8 21 11 37 20 SSE 1019,6 43 0,0
13.06.2019 17:00:00 13,4 0,7 19 11 39 21 SSE 1019,8 50 0,0
13.06.2019 16:00:00 13,4 1,4 20 11 38 21 SSE 1020,0 45 0,0
13.06.2019 15:00:00 12,8 1,2 20 11 35 19 SSE 1020,8 42 0,0
13.06.2019 14:00:00 10,9 1,2 17 9 40 22 SSE 1021,8 49 0,0
13.06.2019 13:00:00 11,3 1,5 22 12 36 19 SE 1021,8 50 0,0
13.06.2019 12:00:00 10,6 1,4 17 9 29 16 SE 1022,3 45 0,0

tt = Température de l'air
td = dewpoint
ff = Vitesse du vent
fx = gusts
dd = Direction du vent
ppp = reduced air pressure
vv = visibility
rr = Quantités de précipitations

stations d'obs. à proximité